www.pogodaiklimat.ru

Погода и климат >> Архив погоды >> Мьянма >> Кяокпю


ПОГОДА в Кяокпю

  • Прогноз погоды в Кяокпю
  • Монитор погоды в Кяокпю

АРХИВ ПОГОДЫ в Кяокпю

Время (UTC), дата Ветер
(напр.,м/с)
 
Видим.   Явления Облачность Т
(С)
Тd
(С)
f
(%)
Тe
(С)
Тes
(С)
Комфортность P
(гПа)
Po
(гПа)
Тmin
(С)
Tmax
(С)
R
(мм)
R24
(мм)
S
(см)
00 19.08 штиль 0 4000 м в посл. час дождь 10/8 200 м
[Cb cap As op]
+26.0 +25.8 99 +38 +38 очень
душно
1007.8 1007.2 +25.0 4
03 19.08 ЮЗ 4 9000 м 8/5 300 м
[Cu Sc Ac As]
+28.2 +26.8 92 +44 +46 опасность
перегрева
1008.8 1008.2
06 19.08 СЗ 2 9000 м 9/6 300 м
[Cu Sc Ac As]
+29.8 +26.6 83 +46 +50 опасность
перегрева
1008.6 1008.0
09 19.08 СЗ 5 9000 м 9/6 300 м
[Cb cap Ac As]
+29.0 +25.9 83 +43 +44 опасность
перегрева
1006.9 1006.3
12 19.08 СЗ 4 6000 м 9/6 300 м
[Cb cap Ac As]
+29.0 +25.9 83 +43 +43 опасность
перегрева
1006.2 1005.6 +30.6
00 20.08 штиль 0 5000 м слаб. дождь 10/8 200 м
[Cb cap As op]
+25.7 +25.5 99 +37 +37 очень
душно
1006.8 1006.2 +25.0 14
03 20.08 ЮЗ 2 8000 м в посл. час дождь 9/6 300 м
[Cb cap Ac As]
+29.3 +25.9 82 +44 +46 опасность
перегрева
1007.6 1007.0
06 20.08 ЮЗ 5 8000 м 9/6 300 м
[Cb cap Ac As]
+30.0 +25.3 76 +44 +46 опасность
перегрева
1006.4 1005.8
12 20.08 ЮЗ 5 6000 м 9/6 300 м
[Cb cap Ac As]
+29.3 +24.8 77 +42 +42 опасность
перегрева
1003.4 1002.8 +31.0
00 21.08 штиль 0 6000 м в посл. час гроза 10/8 300 м
[Cb cap Ac As]
+26.3 +24.6 90 +37 +37 очень
душно
1004.3 1003.7 +25.0 4
03 21.08 ЮЗ 5 6000 м дождь 10/8 200 м
[Cb cap As op]
+25.0 +25.0 100 +36 +36 очень
душно
1005.8 1005.2
06 21.08 ЮЗ 2 6000 м дождь 10/8 200 м
[Cb cap As op]
+28.3 +26.8 92 +44 +45 опасность
перегрева
1005.2 1004.6
09 21.08 ЮЗ 3 8000 м в посл. час дождь 8/8 300 м
[Cb cap]
+30.8 +26.7 79 +48 +49 опасность
перегрева
1002.7 1002.1
12 21.08 ЮЗ 5 6000 м 9/6 300 м
[Cb cap Ac As]
+28.8 +25.9 84 +43 +43 опасность
перегрева
1002.6 1002.0 +31.3 31
00 22.08 СЗ 3 5000 м слаб. дождь {гроза} 10/8 200 м
[Cb cap As op]
+25.8 +24.6 93 +36 +36 очень
душно
1003.8 1003.2 +24.8 15
03 22.08 З 5 7000 м в посл. час дождь 10/8 300 м
[Cb cap Ac As]
+27.2 +25.6 91 +40 +40 очень
душно
1004.8 1004.2
06 22.08 З 2 6000 м дождь 10/8 200 м
[Cb cap As op]
+29.0 +27.4 91 +47 +47 опасность
перегрева
1004.6 1004.0
09 22.08 ЮЗ 9 8000 м в посл. час дождь 9/6 300 м
[Cb cap Ac As]
+31.0 +26.7 78 +48 +48 опасность
перегрева
1002.8 1002.2
12 22.08 ЮЗ 3 6000 м 10/8 300 м
[Cb cap Ac As]
+28.2 +26.8 92 +44 +44 опасность
перегрева
1003.1 1002.5 +31.8 5
00 23.08 ЮВ 2 6000 м в посл. час дождь 9/6 300 м
[Cb cap Ac As]
+26.7 +25.6 94 +39 +39 очень
душно
1004.8 1004.2 +25.5 2
03 23.08 ЮВ 3 8000 м 9/6 300 м
[Cb cap Ac As]
+29.0 +25.9 83 +43 +45 опасность
перегрева
1006.6 1006.0
06 23.08 ЮЗ 7 8000 м 9/6 300 м
[Cb cap Ac As]
+30.0 +26.6 82 +46 +47 опасность
перегрева
1006.4 1005.8
09 23.08 ЮЗ 5 6000 м дождь 10/8 200 м
[Cb cap As op]
+28.0 +26.8 93 +44 +44 опасность
перегрева
1004.6 1004.0
12 23.08 штиль 0 5000 м слаб. морось {дождь} 10/8 200 м
[Cb cap As op]
+26.8 +25.6 93 +39 +39 очень
душно
1004.8 1004.2 +31.0 6
00 24.08 штиль 0 6000 м 9/6 300 м
[Cb cap Ac As]
+26.8 +25.6 93 +39 +39 очень
душно
1006.3 1005.7 +25.0 1
03 24.08 ЮЗ 2 8000 м 8/8 300 м
[Cb cap]
+30.0 +26.6 82 +46 +49 опасность
перегрева
1007.6 1007.0
06 24.08 ЮЗ 3 7000 м слаб. морось 10/8 300 м
[Cb cap As op]
+27.5 +26.2 93 +42 +42 опасность
перегрева
1006.8 1006.2
09 24.08 ЮЗ 4 7000 м слаб. морось 10/8 300 м
[Cb cap As op]
+27.2 +25.6 91 +40 +40 очень
душно
1005.6 1005.0
12 24.08 ЮЗ 1 6000 м слаб. морось 10/8 300 м
[Cb cap As op]
+28.2 +26.8 92 +44 +44 опасность
перегрева
1005.1 1004.5 +30.5 3
00 25.08 ЮЗ 1 4000 м слаб. дождь 10/8 200 м
[Cb cap As op]
+25.0 +24.6 98 +35 +35 очень
душно
1005.5 1004.9 +24.0 5
03 25.08 ЮЗ 3 6000 м слаб. дождь 10/8 200 м
[Cb cap As op]
+25.8 +24.6 93 +36 +37 очень
душно
1007.4 1006.8
06 25.08 ЮЗ 3 8000 м в посл. час дождь 10/8 300 м
[Cb cap Ac As]
+28.0 +25.0 84 +40 +42 очень
душно
1006.1 1005.5
09 25.08 ЮЗ 4 7000 м слаб. дождь 10/8 300 м
[Cb cap As op]
+26.8 +25.6 93 +39 +40 очень
душно
1004.8 1004.2
12 25.08 ЮЗ 2 5000 м слаб. дождь 10/8 300 м
[Cb cap As op]
+26.0 +24.6 92 +37 +37 очень
душно
1004.1 1003.5 +28.4 11

 

Местоположение метеостанции Кяокпю (Мьянма): широта 19.42 долгота 93.55 высота над уровнем моря 5 м.

В архиве по умолчанию представлена погода в Кяокпю за последнюю неделю. Архивные данные за месяц целиком и за предыдущие месяцы, начиная с января 2011 года, Вы можете получить, выбрав интересующий диапазон дат из раскрывающегося списка и нажав кнопку "Ввод!".


*Определитесь, кто Вы:
робот инопланетянин человек

Внимание! Время в таблицах - всемирное. Для получения местного времени необходимо прибавить поправку, которая равна 6.5 ч.

Смотрите также архив погоды в соседних городах и на ближайших метеорологических станциях:

Погода в Манаунге (Мьянма) (66 км)
Погода в Ситтво (Мьянма) (106 км)
Погода в Тандве (Мьянма) (135 км)
Погода в Минбу (Мьянма) (162 км)
Погода в Магуэе (Мьянма) (168 км)
Погода в Кяуктаве (Мьянма) (186 км)
Погода в Проме (Мьянма) (189 км)
Погода в Текнафе (Бангладеш) (207 км)
Погода в Чау (Мьянма) (210 км)
Погода в Миндате (Мьянма) (222 км)

Пояснения к столбцам:

Ветер - указаны скорость ветра в м/с - средняя за 10 мин, порывы в срок и между сроками (в фигурных скобках) и направление, откуда дует ветер: С - северный, СВ - северо-восточный, В - восточный, ЮВ - юго-восточный, Ю - южный, ЮЗ - юго-западный, З - западный, СЗ - северо-западный.
Видимость - горизонтальная дальность видимости в метрах или километрах. При видимости от 1 до 10 км при отсутствии осадков обычно наблюдается дымка, при ухудшении видимости до 1 км и менее - туман. В сухую погоду видимость может ухудшаться дымом, пылью или мглою.
Явления - указаны атмосферные явления, наблюдавшиеся в срок или в последний час перед сроком; фигурными скобками обозначены явления, наблюдавшиеся между сроками (за 1-3 часа до срока); квадратными скобками обозначены град или гололедные отложения с указанием их диаметра в мм.
Облачность - указаны через наклонную черту общая и нижняя облачность в баллах и высота нижней границы облаков в метрах; квадратными скобками обозначены формы облаков: Ci - перистые, Cs - перисто-слоистые, Cc - перисто-кучевые, Ac - высококучевые, As - высокослоистые, Sc - слоисто-кучевые, Ns - слоисто-дождевые, Cu - кучевые, Cb - кучево-дождевые. Подробнее классификацию облаков см. в Атласе облаков (PDF).
T - Температура воздуха - температура, измеренная на высоте 2 м над землей.
Td - Температура точки росы - температура, при понижении до которой содержащийся в воздухе водяной пар достигнет насыщения.
f - Относительная влажность воздуха - влажноcть воздуха, измеренная на высоте 2 м над землей.
Te - Эффективная температура - температура, которую ощущает одетый по сезону человек в тени. Характеристика душности погоды. При расчете учитывается влияние влажности воздуха и скорости ветра на теплоощущения человека.
Tes - Эффективная температура на солнце - температура, которую ощущает человек, с поправкой на солнечный нагрев. Характеристика знойности погоды. Зависит от высоты солнца над горизонтом, облачности и скорости ветра. Ночью, в пасмурную погоду, а также при ветре 12 м/с и более поправка равна нулю.
P - Атмосферное давление - приведенное к уровню моря атмосферное давление.
Po - Атмосферное давление - измеренное на уровне метеостанции атмосферное давление.
Tmin - Минимальная температура - минимум температуры воздуха на высоте 2 м над землей.
Tmax - Максимальная температура - максимум температуры воздуха на высоте 2 м над землей.
R - Количество осадков - Количество выпавших осадков за период времени, мм. При наведении курсора мыши на число - период времени, за который выпало указанное количество осадков.
R24 - Количество осадков - Количество выпавших осадков за 24 часа, мм.
S - Снежный покров - Высота снежного покрова, см. При наведении курсора мыши на число - состояние снежного покрова и степень покрытия местности в баллах.